TimeGMT,TemperatureF,Dew PointF,Humidity,Sea Level PressureIn,VisibilityMPH,Wind Direction,Wind SpeedMPH,Gust SpeedMPH,PrecipitationIn,Events,Conditions,WindDirDegrees,DateUTC
12:20 AM,44.6,39.2,81,29.68,6.2,South,27.6,-,N/A,,Unknown,180,2012-12-28 00:20:00
12:50 AM,44.6,41.0,87,29.68,6.2,South,29.9,-,N/A,,Partly Cloudy,190,2012-12-28 00:50:00
1:20 AM,44.6,41.0,87,29.65,5.0,South,31.1,-,N/A,,Scattered Clouds,190,2012-12-28 01:20:00
1:50 AM,42.8,41.0,93,29.62,3.1,South,33.4,44.9,N/A,Rain,Light Rain Showers,190,2012-12-28 01:50:00
2:20 AM,42.8,39.2,87,29.59,3.7,South,35.7,47.2,N/A,Rain,Light Rain,180,2012-12-28 02:20:00
2:50 AM,42,39,86,29.57,3,South,35.7,,,Rain,Rain,180,2012-12-28 02:50:00
2:50 AM,42.8,39.2,87,29.56,-9999.0,South,35.7,47.2,N/A,Rain,Rain,180,2012-12-28 02:50:00
3:20 AM,42.8,41.0,93,29.53,3.1,South,36.8,-,N/A,Rain,Rain,170,2012-12-28 03:20:00
3:50 AM,42.8,41.0,93,29.47,-9999.0,South,36.8,-,N/A,Rain,Rain,170,2012-12-28 03:50:00
5:50 AM,46,45,95,29.40,3,South,33.4,,,Rain,Light Rain Showers,190,2012-12-28 05:50:00
6:50 AM,48.2,46.4,93,29.36,-9999.0,SSW,29.9,-,N/A,Rain,Rain,200,2012-12-28 06:50:00
7:20 AM,48.2,48.2,100,29.36,-9999.0,SSW,28.8,-,N/A,Rain,Light Rain,200,2012-12-28 07:20:00
7:50 AM,48.2,48.2,100,29.33,-9999.0,SSW,28.8,-,N/A,Rain,Rain,200,2012-12-28 07:50:00
8:20 AM,50.0,48.2,94,29.33,-9999.0,SSW,26.5,-,N/A,Rain,Rain,200,2012-12-28 08:20:00
8:50 AM,49,49,99,29.35,4,SSW,24.2,,,Rain,Rain,210,2012-12-28 08:50:00
8:50 AM,50.0,48.2,94,29.33,3.7,SSW,24.2,35.7,N/A,Rain,Rain,210,2012-12-28 08:50:00
9:20 AM,50.0,50.0,100,29.33,2.8,SSW,27.6,-,N/A,Rain,Light Rain,210,2012-12-28 09:20:00
9:50 AM,50.0,50.0,100,29.33,3.1,SW,28.8,-,N/A,Rain,Light Rain,220,2012-12-28 09:50:00
10:20 AM,51.8,50.0,94,29.33,1.9,SW,29.9,-,N/A,Rain,Light Rain,220,2012-12-28 10:20:00
10:50 AM,50.0,50.0,100,29.33,1.7,SSW,31.1,46.0,N/A,Rain,Light Rain,210,2012-12-28 10:50:00
11:20 AM,50.0,50.0,100,29.33,-9999.0,SSW,27.6,-,N/A,Rain,Light Rain,210,2012-12-28 11:20:00
11:50 AM,51,49,92,29.34,2,SSW,27.6,,,Rain,Rain,210,2012-12-28 11:50:00
11:50 AM,50.0,50.0,100,29.33,2.5,SSW,27.6,40.3,N/A,Rain,Light Rain,210,2012-12-28 11:50:00
12:20 PM,50.0,48.2,94,29.33,5.0,SSW,25.3,-,N/A,Rain,Light Rain,200,2012-12-28 12:20:00
12:50 PM,50.0,48.2,94,29.30,5.6,SSW,25.3,-,N/A,,Mostly Cloudy,200,2012-12-28 12:50:00
1:20 PM,50.0,48.2,94,29.27,6.2,SSW,26.5,-,N/A,,Scattered Clouds,200,2012-12-28 13:20:00
1:50 PM,50.0,48.2,94,29.27,2.2,South,28.8,-,N/A,Rain,Light Rain,190,2012-12-28 13:50:00
2:20 PM,50.0,48.2,94,29.24,-9999.0,South,29.9,-,N/A,Rain,Light Rain,190,2012-12-28 14:20:00
2:50 PM,50,49,95,29.24,2,South,32.2,,,Rain,Light Rain Showers,190,2012-12-28 14:50:00
2:50 PM,50.0,50.0,100,29.24,2.2,South,32.2,-,N/A,Rain,Light Rain,190,2012-12-28 14:50:00
3:20 PM,50.0,48.2,94,29.21,4.3,South,32.2,-,N/A,,Mostly Cloudy,190,2012-12-28 15:20:00
3:50 PM,50.0,48.2,94,29.18,4.3,South,31.1,-,N/A,,Mostly Cloudy,180,2012-12-28 15:50:00
4:20 PM,50.0,48.2,94,29.15,-9999.0,South,31.1,42.6,N/A,Rain,Light Rain Showers,180,2012-12-28 16:20:00
4:50 PM,50.0,48.2,94,29.15,1.7,South,34.5,47.2,N/A,Rain,Light Rain,180,2012-12-28 16:50:00
5:20 PM,50.0,48.2,94,29.12,2.2,South,32.2,-,N/A,Rain,Light Rain,180,2012-12-28 17:20:00
5:50 PM,50,49,95,29.12,2,South,32.2,,,Rain,Light Rain,180,2012-12-28 17:50:00
5:50 PM,50.0,48.2,94,29.09,2.2,South,32.2,-,N/A,Rain,Light Rain,180,2012-12-28 17:50:00
6:20 PM,50.0,48.2,94,29.09,-9999.0,South,32.2,43.7,N/A,,Overcast,180,2012-12-28 18:20:00
6:50 PM,50.0,48.2,94,29.06,1.9,South,32.2,-,N/A,,Mostly Cloudy,180,2012-12-28 18:50:00
7:20 PM,50.0,48.2,94,29.06,1.6,South,34.5,-,N/A,Rain,Light Rain Showers,190,2012-12-28 19:20:00
7:50 PM,50.0,48.2,94,29.03,2.8,South,31.1,-,N/A,,Overcast,180,2012-12-28 19:50:00
8:20 PM,50.0,48.2,94,29.00,3.1,South,32.2,-,N/A,,Mostly Cloudy,170,2012-12-28 20:20:00
8:50 PM,51,48,87,29.00,4,South,32.2,,,Rain,Rain,180,2012-12-28 20:50:00
8:50 PM,50.0,48.2,94,29.00,3.7,South,32.2,-,N/A,,Mostly Cloudy,180,2012-12-28 20:50:00
9:20 PM,51.8,48.2,88,28.97,3.7,South,33.4,-,N/A,,Scattered Clouds,180,2012-12-28 21:20:00
9:50 PM,51.8,48.2,88,28.94,3.7,South,34.5,-,N/A,,Mostly Cloudy,180,2012-12-28 21:50:00
10:20 PM,51.8,48.2,88,28.94,5.0,South,34.5,-,N/A,,Mostly Cloudy,190,2012-12-28 22:20:00
10:50 PM,51.8,46.4,82,28.94,4.3,SSW,32.2,48.3,N/A,,Mostly Cloudy,210,2012-12-28 22:50:00
11:20 PM,51.8,42.8,71,28.97,3.1,SW,43.7,62.1,N/A,,Haze,220,2012-12-28 23:20:00
11:50 PM,51,41,59,28.98,4,SW,46.0,,,Rain,Rain,220,2012-12-28 23:50:00
11:50 PM,50.0,41.0,71,28.97,3.1,SW,46.0,64.4,N/A,,Haze,220,2012-12-28 23:50:00